User: anonymous   Login
Location: Cluny
(50.9333°N, 112.8167°W)
Time: 10:09:46
(UTC-06:00)
Language:

Hamsat - Orbit

View from above orbital plane
View from above orbital plane
View from above satellite
View from above satellite

Ground track
Ground track

The orbit data is extracted from the following two-line orbital elements,

1 28650U 05017B   15243.76181716  .00000841  00000-0  97759-4 0  9990
2 28650  97.5805 232.8333 0025142 138.3495 221.9643 14.87598983558689
Epoch (UTC): 31 August 2015 18:17:01
Eccentricity: 0.0025142
inclination: 97.5805°
perigee height: 588 km
apogee height: 623 km
right ascension of ascending node: 232.8333°
argument of perigee: 138.3495°
revolutions per day: 14.87598983
mean anomaly at epoch: 221.9643°
orbit number at epoch: 55868

The dashed part of the orbit path shows where the satellite is in the earth's shadow,  

DLR